Weather in Taurage

Lithuania     55˚15′02″N   22˚17′32″E
temp.,
°C
wind,
m/s
gust,
m/s
humid.,
%
clouds,
%
prec.,
mm/h
press.,
hPa
HPBL,
m
1 december, tue
tue123:00ssw5118789 0.2 1021452
02:00+1˚ssw499470 0.2 1021363
05:00ssw398794 0.1 1022446
08:00−1˚sse269548 0.1 1023213
11:00sse47816 0.0 1024538
14:00+1˚sse477230 0.0 1026783
17:00−1˚ese258125 0.0 1027129
20:00−1˚se378243 0.0 1028259
2 december, wed
wed223:00−2˚se36864 0.0 1029236
02:00−2˚ese368547 0.0 1030220
05:00−2˚ese358467 0.0 1029220
08:00−3˚ese368234 0.0 1029250
11:00−2˚se36750 0.0 1029320
14:00−1˚se367016 0.0 1028369
17:00−2˚ese38789 0.0 1026290
20:00−3˚ese387935 0.0 1025334
3 december, thu
thu323:00−3˚ese488427 0.0 1024330
02:00−3˚se479323 0.0 1022311
05:00−3˚se479283 0.0 1021361
08:00−3˚se588991 0.0 1019501
11:00−1˚sse5979100 0.0 1018711
14:00sse5976100 0.0 1017774
17:00ese51281100 0.0 1016608
20:00se61383100 0.0 1015632
4 december, fri
fri423:00se61385100 0.0 1014642
02:00+1˚se61383100 0.0 1012654
05:00+1˚se61380100 0.0 1011648
08:00ese71480100 0.0 1010573
11:00+1˚se71480100 0.0 1010650
14:00+4˚se71487100 0.0 1009783
17:00+4˚se61588100 0.0 1009851
20:00+4˚se71585100 0.0 1008820
5 december, sat
sat523:00+4˚se7168691 0.0 1008754
02:00+4˚se7168593 0.0 1008693
05:00+4˚se7168786 0.0 1008692
08:00+6˚se7158693 0.0 1009815
11:00+7˚se71484100 0.0 1009822
14:00+8˚se71481100 0.0 1010835
17:00+8˚se71585100 0.0 1010805
20:00+7˚se71587100 0.0 1010690